Location: Newark
(26.7031°N, 81.8844°W)
Time: 02:18:12
(UTC+00:00)

LightSail 2 - Visible Passes

Search period start: 23 January 2020 00:00
Search period end: 02 February 2020 00:00
Orbit: 704 x 720 km, 24.0° (Epoch: 22 January)

Date Brightness Start Highest point End Pass type
(mag) Time Alt. Az. Time Alt. Az. Time Alt. Az.
23 Jan 5.5 01:03:14 10° W 01:08:00 58° SSW 01:08:00 58° SSW visible
24 Jan 5.4 00:04:47 10° W 00:09:54 64° S 00:13:18 21° ESE visible
24 Jan 7.4 01:50:23 10° W 01:52:15 21° WSW 01:52:15 21° WSW visible
25 Jan 5.7 00:51:52 10° W 00:56:51 49° SSW 00:57:35 45° SSE visible
25 Jan 5.6 23:53:23 10° W 23:58:25 57° S 00:02:59 13° ESE visible
26 Jan 7.1 01:39:11 10° WSW 01:41:56 24° SW 01:41:56 24° SW visible
27 Jan 6.3 00:40:33 10° W 00:45:17 37° SSW 00:47:24 26° SSE visible
27 Jan 6.1 23:41:59 10° W 23:46:53 45° SSW 23:51:48 10° ESE visible
28 Jan 7.2 01:28:19 10° WSW 01:31:54 20° SSW 01:31:54 20° SSW visible
29 Jan 6.9 00:29:25 10° WSW 00:33:39 26° SSW 00:37:31 12° SSE visible
29 Jan 6.7 23:30:41 10° W 23:35:16 33° SSW 23:39:52 10° SE visible
30 Jan 7.7 01:18:18 10° SW 01:20:19 12° SSW 01:22:11 10° S visible
31 Jan 7.6 00:18:41 10° WSW 00:21:58 17° SSW 00:25:15 10° SSE visible
